Location: Guilderland
(42.7045°N, 73.9115°W)
Time: 02:33:58
(UTC+00:00)

Meteor 2-12 Rocket - Pass Details

Date: 24 January 2020
Orbit: 936 x 957 km, 82.5° (Epoch: 19 February)

Event Time Altitude Azimuth Distance (km) Brightness Sun altitude
Rises 23:40:50 0° 179° (S) 3,582 7.6 -18.8°
Reaches altitude 10° 23:43:19 10° 178° (S) 2,640 6.8 -19.3°
Maximum altitude 23:49:18 72° 95° (E) 985 4.3 -20.3°
Drops below altitude 10° 23:55:20 10° 12° (NNE) 2,658 6.6 -21.4°
Sets 23:57:50 0° 11° (N) 3,607 7.3 -21.9°
